This is the latest recevied weather packets stored in our database for station/object OK1FET-4. If no packets are shown the sender has not sent any weather packets the latest 10 day(s).
| Time | Temp. | Humidity | Pressure | Rain* | Wind** | Luminosity | Snow |
|---|---|---|---|---|---|---|---|
| 1778064190 | 21.11° C | 67% | 1007.6 hPa | - | - | - | - |
| 1778064190 | 21.11° C | 67% | 1007.6 hPa | - | - | - | - |
| 1778064190 | 21.11° C | 67% | 1007.6 hPa | - | - | - | - |
| 1778063889 | 20° C | 60% | 1007.6 hPa | - | - | - | - |
| 1778063889 | 20° C | 60% | 1007.6 hPa | - | - | - | - |
| 1778063889 | 20° C | 60% | 1007.6 hPa | - | - | - | - |
| 1778063588 | 20.56° C | 58% | 1007.7 hPa | - | - | - | - |
| 1778063588 | 20.56° C | 58% | 1007.7 hPa | - | - | - | - |
| 1778063588 | 20.56° C | 58% | 1007.7 hPa | - | - | - | - |
| 1778063287 | 20.56° C | 61% | 1007.7 hPa | - | - | - | - |
| 1778063286 | 20.56° C | 61% | 1007.7 hPa | - | - | - | - |
| 1778063286 | 20.56° C | 61% | 1007.7 hPa | - | - | - | - |
| 1778062985 | 20° C | 63% | 1007.7 hPa | - | - | - | - |
| 1778062985 | 20° C | 63% | 1007.7 hPa | - | - | - | - |
| 1778062985 | 20° C | 63% | 1007.7 hPa | - | - | - | - |
| 1778062685 | 20° C | 60% | 1007.7 hPa | - | - | - | - |
| 1778062684 | 20° C | 60% | 1007.7 hPa | - | - | - | - |
| 1778062684 | 20° C | 60% | 1007.7 hPa | - | - | - | - |
| 1778062383 | 20° C | 61% | 1007.6 hPa | - | - | - | - |
| 1778062383 | 20° C | 61% | 1007.6 hPa | - | - | - | - |
| 1778062082 | 20.56° C | 59% | 1007.6 hPa | - | - | - | - |
| 1778062082 | 20.56° C | 59% | 1007.6 hPa | - | - | - | - |
| 1778061781 | 19.44° C | 65% | 1007.8 hPa | - | - | - | - |
| 1778061781 | 19.44° C | 65% | 1007.8 hPa | - | - | - | - |
| 1778061481 | 18.89° C | 62% | 1007.7 hPa | - | - | - | - |
* Rain since midnight (hover to see other rain measurements)
** Current wind speed in m/s (hover to see current wind gust speed)